Location: Brahman Valley
(40.6513°N, 111.8855°W)
Time: 11:45:36
(UTC+00:00)

Tiros 1 despin weight - Visible Passes

Search period start: 13 May 2021 00:00
Search period end: 23 May 2021 00:00
Orbit: 593 x 642 km, 48.2° (Epoch: 12 May)

Date Brightness Start Highest point End Pass type
(mag) Time Alt. Az. Time Alt. Az. Time Alt. Az.
13 May ? 04:33:37 10° WSW 04:38:13 57° NNW 04:42:52 10° ENE visible
13 May ? 06:16:12 10° WNW 06:20:26 32° N 06:24:22 12° ENE visible
13 May ? 07:58:15 10° NW 08:01:19 34° NNW 08:01:19 34° NNW visible
13 May ? 09:48:07 16° SE 09:48:07 16° SE 09:49:01 10° SE visible
13 May ? 11:25:31 11° SW 11:25:31 11° SW 11:26:18 10° SW visible
14 May ? 03:08:19 10° SW 03:12:56 68° SE 03:17:35 10° ENE visible
14 May ? 04:50:18 10° W 04:54:44 41° NNW 04:59:11 10° NE visible
14 May ? 06:32:49 10° WNW 06:37:05 33° N 06:39:02 24° NE visible
14 May ? 08:14:34 10° WNW 08:16:02 20° NW 08:16:02 20° NW visible
15 May ? 03:24:35 10° WSW 03:29:14 73° NNW 03:33:57 10° ENE visible
15 May ? 05:07:03 10° WNW 05:11:20 34° N 05:15:37 10° ENE visible
15 May ? 06:49:18 10° NW 06:53:42 38° NNE 06:53:59 38° NNE visible
15 May ? 08:30:53 10° WNW 08:30:59 10° WNW 08:30:59 10° WNW visible
16 May ? 03:41:10 10° W 03:45:41 49° NNW 03:50:15 10° NE visible
16 May ? 05:23:45 10° WNW 05:27:58 32° N 05:32:00 11° ENE visible
16 May ? 07:05:39 10° NW 07:09:01 39° NNW 07:09:01 39° NNW visible
17 May ? 03:57:53 10° W 04:02:14 37° NNW 04:06:37 10° ENE visible
17 May ? 05:40:18 10° WNW 05:44:36 34° N 05:47:06 21° ENE visible
17 May ? 07:21:57 10° WNW 07:24:06 27° NW 07:24:06 27° NW visible
18 May ? 04:14:37 10° WNW 04:18:51 33° N 04:23:06 10° ENE visible
18 May ? 05:56:43 10° NW 06:01:11 42° NNE 06:02:13 36° NE visible
18 May ? 07:38:18 10° WNW 07:39:13 16° WNW 07:39:13 16° WNW visible
19 May ? 04:31:16 10° WNW 04:35:29 32° N 04:39:44 10° ENE visible
19 May ? 06:13:02 10° WNW 06:17:22 57° N 06:17:22 57° N visible
20 May ? 03:05:28 10° WNW 03:09:45 35° N 03:14:03 10° ENE visible
20 May ? 04:47:46 10° WNW 04:52:07 37° NNE 04:55:32 15° ENE visible
20 May ? 06:29:21 10° WNW 06:32:33 43° WNW 06:32:33 43° WNW visible
21 May ? 03:22:11 10° WNW 03:26:22 32° N 03:30:36 10° ENE visible
21 May ? 05:04:08 10° NW 05:08:40 47° NNE 05:10:45 28° ENE visible
21 May ? 06:45:45 10° WNW 06:47:45 24° WNW 06:47:45 24° WNW visible
22 May ? 03:38:46 10° WNW 03:43:01 33° N 03:47:17 10° ENE visible
22 May ? 05:20:26 10° WNW 05:25:07 70° NNE 05:25:59 55° E visible
22 May ? 07:02:26 10° WNW 07:03:00 13° W 07:03:00 13° W visible
